TimeEDT,TemperatureF,Dew PointF,Humidity,Sea Level PressureIn,VisibilityMPH,Wind Direction,Wind SpeedMPH,Gust SpeedMPH,PrecipitationIn,Events,Conditions,WindDirDegrees,DateUTC
12:07 AM,64.4,62.6,94,29.98,8.0,SSW,6.9,-,N/A,,Overcast,210,2013-10-16 04:07:00
12:36 AM,64.4,62.6,94,29.98,8.0,SSW,6.9,-,N/A,,Mostly Cloudy,200,2013-10-16 04:36:00
12:56 AM,64.9,61.9,90,29.96,8.0,SSW,6.9,-,N/A,,Mostly Cloudy,210,2013-10-16 04:56:00
1:13 AM,64.4,62.6,94,29.97,8.0,SSW,6.9,-,N/A,,Mostly Cloudy,210,2013-10-16 05:13:00
1:56 AM,63.0,61.9,96,29.95,4.0,SSW,3.5,-,0.00,Rain,Light Rain,200,2013-10-16 05:56:00
2:26 AM,62.6,62.6,100,29.96,7.0,South,4.6,-,0.00,Rain,Light Rain,190,2013-10-16 06:26:00
2:56 AM,61.9,61.9,100,29.94,7.0,South,4.6,-,0.00,,Mostly Cloudy,180,2013-10-16 06:56:00
3:56 AM,61.9,61.0,97,29.91,8.0,Calm,Calm,-,N/A,,Mostly Cloudy,0,2013-10-16 07:56:00
4:56 AM,63.0,61.0,93,29.90,8.0,South,4.6,-,N/A,,Mostly Cloudy,190,2013-10-16 08:56:00
5:56 AM,63.0,61.9,96,29.90,5.0,South,5.8,-,0.00,Rain,Light Rain,190,2013-10-16 09:56:00
6:15 AM,62.6,62.6,100,29.92,2.0,SSW,5.8,-,0.03,Rain,Rain,200,2013-10-16 10:15:00
6:30 AM,62.6,62.6,100,29.92,3.0,SSW,6.9,-,0.04,Rain,Light Rain,200,2013-10-16 10:30:00
6:39 AM,62.6,62.6,100,29.92,2.0,SSW,6.9,-,0.05,Rain,Light Rain,210,2013-10-16 10:39:00
6:44 AM,62.6,62.6,100,29.92,1.2,South,6.9,-,0.09,Rain,Rain,190,2013-10-16 10:44:00
6:56 AM,61.9,61.9,100,29.91,1.8,SSW,6.9,-,0.14,Rain,Light Rain,200,2013-10-16 10:56:00
6:59 AM,62.6,62.6,100,29.92,3.0,SSW,6.9,-,0.00,Rain,Light Rain,200,2013-10-16 10:59:00
7:23 AM,62.6,62.6,100,29.93,2.0,SSW,6.9,-,0.01,Rain,Light Rain,210,2013-10-16 11:23:00
7:38 AM,62.6,62.6,100,29.92,4.0,SSW,6.9,-,0.01,Rain,Light Rain,210,2013-10-16 11:38:00
7:56 AM,61.9,61.9,100,29.91,4.0,South,5.8,-,0.01,,Overcast,190,2013-10-16 11:56:00
8:10 AM,62.6,62.6,100,29.93,5.0,SSW,8.1,-,N/A,,Overcast,210,2013-10-16 12:10:00
8:56 AM,61.9,61.9,100,29.92,2.5,SSW,6.9,-,N/A,,Overcast,200,2013-10-16 12:56:00
9:30 AM,62.6,62.6,100,29.93,3.0,SSW,6.9,-,N/A,,Overcast,200,2013-10-16 13:30:00
9:39 AM,62.6,62.6,100,29.93,2.0,SSW,5.8,-,N/A,,Overcast,200,2013-10-16 13:39:00
9:56 AM,63.0,63.0,100,29.92,3.0,SSW,5.8,-,N/A,,Overcast,200,2013-10-16 13:56:00
10:10 AM,62.6,62.6,100,29.93,2.5,SSW,5.8,-,N/A,,Overcast,200,2013-10-16 14:10:00
10:45 AM,62.6,62.6,100,29.93,1.5,SSW,9.2,-,N/A,,Overcast,200,2013-10-16 14:45:00
10:56 AM,63.0,63.0,100,29.92,1.5,SSW,6.9,-,N/A,,Overcast,200,2013-10-16 14:56:00
11:07 AM,62.6,62.6,100,29.93,1.2,SSW,6.9,-,N/A,,Overcast,200,2013-10-16 15:07:00
11:23 AM,62.6,62.6,100,29.93,1.8,SSW,6.9,-,N/A,,Overcast,210,2013-10-16 15:23:00
11:56 AM,59.9,59.9,100,29.93,1.5,West,9.2,-,0.00,Rain,Light Rain,280,2013-10-16 15:56:00
12:15 PM,59.0,57.2,94,29.94,1.8,Variable,6.9,-,0.00,Rain,Light Rain,0,2013-10-16 16:15:00
12:28 PM,57.2,57.2,100,29.94,2.0,WSW,8.1,-,0.00,,Overcast,250,2013-10-16 16:28:00
12:42 PM,57.2,57.2,100,29.94,1.5,SSW,4.6,-,0.00,Rain,Light Rain,210,2013-10-16 16:42:00
12:48 PM,57.2,57.2,100,29.94,1.2,SSW,4.6,-,0.00,Rain,Light Rain,200,2013-10-16 16:48:00
12:56 PM,59.0,57.9,96,29.93,1.0,SSW,4.6,-,0.00,Rain,Light Rain,210,2013-10-16 16:56:00
1:02 PM,59.0,59.0,100,29.94,1.5,SSW,4.6,-,0.01,Rain,Light Rain,210,2013-10-16 17:02:00
1:23 PM,60.8,60.8,100,29.93,2.5,SW,6.9,-,0.01,,Overcast,220,2013-10-16 17:23:00
1:30 PM,60.8,60.8,100,29.93,4.0,SW,6.9,-,0.01,,Overcast,230,2013-10-16 17:30:00
1:38 PM,60.8,60.8,100,29.92,4.0,SW,10.4,-,0.01,,Overcast,230,2013-10-16 17:38:00
1:56 PM,61.9,59.0,90,29.91,6.0,SW,8.1,-,0.01,,Overcast,220,2013-10-16 17:56:00
2:17 PM,62.6,59.0,88,29.91,6.0,SW,10.4,-,N/A,,Mostly Cloudy,230,2013-10-16 18:17:00
2:56 PM,66.9,57.9,73,29.89,7.0,SW,6.9,-,N/A,,Partly Cloudy,230,2013-10-16 18:56:00
3:56 PM,65.8,54.9,68,29.91,8.0,SSW,5.8,-,N/A,,Mostly Cloudy,210,2013-10-16 19:56:00
4:56 PM,65.8,52.0,61,29.90,8.0,SW,10.4,-,N/A,,Partly Cloudy,220,2013-10-16 20:56:00
5:56 PM,64.9,50.0,58,29.91,9.0,WSW,9.2,-,N/A,,Mostly Cloudy,240,2013-10-16 21:56:00
6:56 PM,59.9,47.8,64,29.92,9.0,SSW,6.9,-,N/A,,Scattered Clouds,210,2013-10-16 22:56:00
7:56 PM,55.9,46.9,72,29.94,10.0,SSW,6.9,-,N/A,,Scattered Clouds,210,2013-10-16 23:56:00
8:56 PM,54.0,45.0,72,29.95,10.0,SW,6.9,-,N/A,,Clear,220,2013-10-17 00:56:00
9:56 PM,50.0,45.9,86,29.97,10.0,South,4.6,-,N/A,,Clear,190,2013-10-17 01:56:00
10:56 PM,48.9,45.9,89,29.99,9.0,SW,6.9,-,N/A,,Clear,220,2013-10-17 02:56:00
11:56 PM,45.9,43.9,93,29.98,8.0,SW,5.8,-,N/A,,Clear,220,2013-10-17 03:56:00